Home   Weather   Seevetal   Past weeks

Flag for Germany Past Weather in Seevetal, Lower Saxony, Germany — Yesterday and Last 2 Weeks

Now
36 °F

Partly sunny.


Feels Like: 33 °F
Forecast: 28 / 39 °F
Wind: 3 mph from North

Location: Hamburg-Finkenwerder

Current Time: Dec 6, 2016 at 3:28:44 pm

Latest Report: Dec 6, 2016 at 2:50 pm


Visibility: N/A

Pressure: 30.45 "Hg

Humidity: 81%

Dew Point: 30 °F

Location of SeevetalLocation

Past Weather in Seevetal — Graph

°F

Seevetal Temperature Yesterday

Maximum temperature yesterday: 36 °F (at 1:20 pm)
Minimum temperature yesterday: 21 °F (at 7:20 am)
Average temperature yesterday: 29 °F

High & Low Weather Summary for the Past Weeks

 TemperatureHumidityPressure
High59 °F (Nov 21, 1:20 pm)100% (Nov 24, 8:50 pm)30.57 "Hg (Nov 24, 8:50 pm)
Low21 °F (Dec 5, 7:20 am)56% (Nov 28, 1:50 pm)29.59 "Hg (Nov 21, 5:20 pm)
Average39 °F84%30.21 "Hg
* Reported Nov 21 1:20 pm — Dec 6 1:50 pm, Seevetal, Weather by CustomWeather, © 2016

Note: Actual official high and low records may vary slightly from our data, if they occured in-between our weather recording intervals... More about our weather records

Advertising

Seevetal Weather History for the Previous 24 Hours

Scroll right to see more
 ConditionsComfort  
Time TempWeatherWind HumidityBarometerVisibility
1:50 pm
Tue, Dec 6
36 °FPartly sunny.5 mph81%30.45 "HgN/A
1:20 pm36 °FPartly sunny.5 mph75%30.45 "HgN/A
12:50 pm36 °FPartly sunny.6 mph75%30.45 "HgN/A
12:20 pm36 °FPartly sunny.5 mph75%30.45 "HgN/A
11:50 am34 °FPartly sunny.8 mph81%30.45 "HgN/A
11:20 am34 °FPartly sunny.7 mph81%30.45 "HgN/A
10:50 am34 °FPartly sunny.6 mph81%30.45 "HgN/A
10:20 am34 °FPartly sunny.5 mph81%30.45 "HgN/A
9:50 am34 °FBroken clouds.5 mph81%30.42 "HgN/A
9:20 am34 °FOvercast.5 mph81%30.42 "HgN/A
8:50 am34 °FPartly sunny.6 mph81%30.42 "HgN/A
8:20 am34 °FOvercast.3 mph81%30.39 "HgN/A
7:50 am32 °FPassing clouds.6 mph87%30.39 "HgN/A
7:20 am32 °FPassing clouds.5 mph87%30.39 "HgN/A
6:50 am32 °FPassing clouds.5 mph87%30.39 "HgN/A
6:20 am32 °FPassing clouds.5 mph87%30.36 "HgN/A
5:50 am32 °FPassing clouds.3 mph87%30.36 "HgN/A
8:50 pm
Mon, Dec 5
30 °FPassing clouds.6 mph93%30.30 "HgN/A
8:20 pm28 °FPassing clouds.5 mph93%30.30 "HgN/A
7:50 pm28 °FClear.7 mph93%30.30 "Hg10 mi
7:20 pm30 °FClear.7 mph86%30.30 "Hg10 mi
6:50 pm30 °FClear.5 mph93%30.30 "Hg10 mi
6:20 pm30 °FPassing clouds.6 mph93%30.30 "HgN/A
5:50 pm30 °FPassing clouds.6 mph93%30.30 "HgN/A
5:20 pm32 °FClear.3 mph87%30.30 "Hg10 mi
4:50 pm32 °FClear.2 mph87%30.30 "Hg10 mi
4:20 pm34 °FClear.2 mph87%30.30 "Hg10 mi
3:50 pm34 °FSunny.2 mph87%30.30 "Hg10 mi
3:20 pm36 °FSunny.2 mph87%30.30 "Hg10 mi
Weather by CustomWeather, © 2016

See weather overviewHow to use our weather pages